This demonstration page uses our WeatherBlox Daily Observations layout. Learn more.

Hourly Observations for March 31, 2016

Temp ( °F °C ) Dew Point ( °F °C ) Humidity (%) Winds ( mph kmh ) Pressure ( in mb ) Visibility ( mi km ) Precip ( " mm )
12:15 am 00:15 Cloudy 42 5.6 37 2.9 83 83 NNW 15 24 29.68 1005 10 16.0934 0 0
12:35 am 00:35 Cloudy 41 5 37 2.6 85 85 NNW 13 20 29.68 1005 10 16.0934 0 0
12:55 am 00:55 Cloudy 41 4.9 37 2.5 85 85 N 15 24 29.68 1005 10 16.0934 0 0
1:15 am 01:15 Cloudy 41 4.8 36 2.2 83 83 N 16 26 29.68 1005 10 16.0934 0 0
1:35 am 01:35 Cloudy 41 4.8 36 2.2 83 83 NNW 13 20 29.68 1005 10 16.0934 0 0
1:55 am 01:55 Cloudy 40 4.3 36 2.2 86 86 NW 15 24 29.68 1005 10 16.0934 0 0
2:15 am 02:15 Cloudy with Light Rain 39 4 36 2 87 87 N 20 31 29.68 1005 7 11.26538 0 0
2:35 am 02:35 Cloudy 39 3.7 35 1.7 87 87 NNW 14 22 29.68 1005 10 16.0934 0 0
2:55 am 02:55 Cloudy with Light Drizzle 38 3.1 35 1.5 89 89 NNW 13 20 29.68 1005 5 8.0467 0 0
3:15 am 03:15 Cloudy with Light Drizzle 37 3 35 1.5 90 90 NW 15 24 29.68 1005 7 11.26538 0 0
3:35 am 03:35 Cloudy with Rain 37 3 35 1.5 90 90 NW 17 28 29.68 1005 7 11.26538 0 0
3:55 am 03:55 Cloudy with Drizzle 37 3 35 1.7 91 91 NW 18 30 29.68 1005 7 11.26538 0 0
4:15 am 04:15 Cloudy with Rain 37 2.8 35 1.5 91 91 NW 13 20 29.68 1005 7 11.26538 0.01 0.254
4:35 am 04:35 Cloudy with Light Rain 38 3.1 36 2 93 93 WNW 12 19 29.68 1005 10 16.0934 0.01 0.254
4:55 am 04:55 Cloudy with Light Drizzle 38 3.5 36 2.2 91 91 WNW 12 19 29.68 1005 10 16.0934 0.01 0.254
5:15 am 05:15 Cloudy 39 3.7 36 2.1 89 89 WNW 12 19 29.68 1005 10 16.0934 0 0
5:35 am 05:35 Mostly Cloudy 39 3.7 35 1.9 88 88 WNW 10 17 29.68 1005 10 16.0934 0 0
5:55 am 05:55 Partly Cloudy 38 3.2 34 1.2 87 87 NW 9 15 29.68 1005 10 16.0934 0 0
6:15 am 06:15 Clear 36 2.1 33 0.6 90 90 WNW 8 13 29.71 1006 10 16.0934 0 0
6:35 am 06:35 Clear 36 2.1 34 0.9 92 92 W 10 17 29.71 1006 10 16.0934 0 0
6:55 am 06:55 Partly Cloudy 37 2.7 34 1 89 89 W 12 19 29.68 1005 10 16.0934 0 0
7:15 am 07:15 Partly Cloudy 36 2 33 0.5 90 90 WNW 10 17 29.74 1007 10 16.0934 0 0
7:35 am 07:35 Sunny 36 2.2 33 0.5 89 89 WNW 10 17 29.74 1007 10 16.0934 0 0
7:55 am 07:55 Partly Cloudy 37 2.6 33 0.7 87 87 WNW 8 13 29.74 1007 10 16.0934 0 0
8:15 am 08:15 Mostly Cloudy 38 3.6 35 1.4 86 86 WNW 8 13 29.71 1006 10 16.0934 0 0
8:35 am 08:35 Partly Cloudy 40 4.3 36 2.2 86 86 NW 12 19 29.71 1006 10 16.0934 0 0
8:55 am 08:55 Sunny 41 4.8 37 2.7 86 86 NW 13 20 29.71 1006 10 16.0934 0 0
9:15 am 09:15 Sunny 43 6.1 38 3.2 82 82 NW 16 26 29.68 1005 10 16.0934 0 0
9:35 am 09:35 Sunny 43 6.2 38 3.2 81 81 NW 18 30 29.74 1007 10 16.0934 0 0
9:55 am 09:55 Partly Cloudy 44 6.9 38 3.5 79 79 NW 16 26 29.71 1006 10 16.0934 0 0
10:15 am 10:15 Mostly Cloudy 46 7.5 39 3.7 77 77 NW 17 28 29.71 1006 10 16.0934 0 0
10:35 am 10:35 Cloudy 45 7.2 39 3.7 79 79 NW 21 33 29.71 1006 10 16.0934 0 0
10:55 am 10:55 Mostly Cloudy 47 8.1 38 3.5 73 73 NW 20 31 29.71 1006 10 16.0934 0 0
11:15 am 11:15 Cloudy 47 8.6 40 4.4 75 75 NNW 20 31 29.71 1006 10 16.0934 0 0
11:35 am 11:35 Cloudy 46 7.8 37 2.9 71 71 NW 20 31 29.74 1007 10 16.0934 0 0
11:55 am 11:55 Cloudy 48 8.7 37 2.7 66 66 NW 16 26 29.74 1007 10 16.0934 0 0
12:15 pm 12:15 Cloudy 47 8.3 37 2.5 67 67 NNW 14 22 29.74 1007 10 16.0934 0 0
12:35 pm 12:35 Cloudy 46 7.9 36 2 67 67 NNW 31 50 29.77 1008 10 16.0934 0 0
12:55 pm 12:55 Cloudy 43 6.3 36 2.2 75 75 NNW 18 30 29.8 1009 7 11.26538 0 0
1:15 pm 13:15 Cloudy 44 6.6 32 0.2 64 64 NNW 22 35 29.8 1009 10 16.0934 0 0
1:35 pm 13:35 Cloudy 45 7.2 32 -0.2 60 60 NNW 31 50 29.8 1009 10 16.0934 0 0
1:55 pm 13:55 Cloudy 44 6.4 31 -0.5 62 62 NNW 24 39 29.83 1010 10 16.0934 0 0
2:15 pm 14:15 Cloudy 45 7.1 29 -1.8 54 54 NNW 23 37 29.83 1010 10 16.0934 0 0
2:35 pm 14:35 Mostly Cloudy 47 8.3 27 -2.6 47 47 NNW 24 39 29.8 1009 10 16.0934 0 0
2:55 pm 14:55 Mostly Cloudy 46 7.8 26 -3.5 45 45 NNW 24 39 29.8 1009 10 16.0934 0 0
3:15 pm 15:15 Mostly Cloudy 48 8.7 26 -3.6 42 42 NW 28 44 29.8 1009 10 16.0934 0 0
3:35 pm 15:35 Partly Cloudy 47 8.1 23 -4.9 40 40 NW 30 48 29.8 1009 10 16.0934 0 0
3:55 pm 15:55 Mostly Cloudy 47 8.6 23 -5.1 38 38 NNW 24 39 29.8 1009 10 16.0934 0 0
4:15 pm 16:15 Partly Cloudy 47 8.1 22 -5.4 38 38 NNW 28 44 29.8 1009 10 16.0934 0 0
4:35 pm 16:35 Partly Cloudy 46 7.7 22 -5.5 39 39 NW 23 37 29.8 1009 10 16.0934 0 0
4:55 pm 16:55 Partly Cloudy 47 8.5 22 -5.7 36 36 NNW 20 31 29.8 1009 10 16.0934 0 0
5:15 pm 17:15 Mostly Cloudy 46 7.8 21 -5.9 38 38 NNW 23 37 29.8 1009 10 16.0934 0 0
5:35 pm 17:35 Mostly Cloudy 49 9.3 21 -6.1 33 33 WNW 24 39 29.8 1009 10 16.0934 0 0
5:55 pm 17:55 Partly Cloudy 47 8.5 19 -7 33 33 NW 24 39 29.8 1009 10 16.0934 0 0
6:15 pm 18:15 Partly Cloudy 48 8.7 20 -6.8 33 33 NW 26 43 29.8 1009 10 16.0934 0 0
6:35 pm 18:35 Partly Cloudy 46 7.7 22 -5.4 39 39 NW 20 31 29.8 1009 10 16.0934 0 0
7:15 pm 19:15 Sunny 46 7.5 23 -5 41 41 NW 20 31 29.83 1010 10 16.0934 0 0
7:35 pm 19:35 Sunny 44 6.7 26 -3.5 49 49 NNW 16 26 29.85 1011 10 16.0934 0 0
7:55 pm 19:55 Sunny 43 5.9 24 -4.6 47 47 NW 14 22 29.85 1011 10 16.0934 0 0
8:15 pm 20:15 Clear 41 5.2 23 -5.1 48 48 NW 10 17 29.85 1011 10 16.0934 0 0
8:35 pm 20:35 Clear 40 4.5 22 -5.3 49 49 NNW 13 20 29.88 1012 10 16.0934 0 0
8:55 pm 20:55 Clear 41 4.9 24 -4.7 50 50 NW 12 19 29.88 1012 10 16.0934 0 0
9:15 pm 21:15 Clear 38 3.6 25 -4.1 58 58 WNW 13 20 29.91 1013 10 16.0934 0 0
9:35 pm 21:35 Clear 38 3.6 24 -4.5 56 56 NW 14 22 29.94 1014 10 16.0934 0 0
9:55 pm 21:55 Clear 38 3.5 24 -4.2 57 57 WNW 13 20 29.97 1015 10 16.0934 0 0
10:15 pm 22:15 Clear 38 3.5 25 -3.8 59 59 WNW 15 24 29.97 1015 10 16.0934 0 0
10:35 pm 22:35 Clear 37 3 25 -3.8 61 61 NW 12 19 29.97 1015 10 16.0934 0 0
10:55 pm 22:55 Clear 36 2 25 -3.8 66 66 NW 12 19 29.97 1015 10 16.0934 0 0
11:15 pm 23:15 Clear 36 2.2 25 -3.8 65 65 WNW 12 19 29.97 1015 10 16.0934 0 0
11:35 pm 23:35 Clear 34 1.2 25 -3.9 69 69 NW 9 15 30.03 1017 10 16.0934 0 0
11:55 pm 23:55 Clear 33 0.7 26 -3.6 73 73 NW 8 13 30.03 1017 10 16.0934 0 0

Powered by AerisWeather